Regional Weather Roundup
Issued by NWS State College, PA

Home | Current Version | Previous Version | Graphics & Text | Print | Product List | Glossary Off
Versions: 1 2 3 4 5 6 7 8 9 10 11 12 13 14 15 16 17 18 19 20 21 22 23 24 25 26 27 28 29 30 31 32 33 34 35 36 37 38 39 40 41 42 43 44 45 46 47 48 49 50

000
ASUS41 KCTP 171503
RWRCTP

REGIONAL WEATHER ROUNDUP
NATIONAL WEATHER SERVICE STATE COLLEGE PA
1100 AM EDT WED SEP 17 2014

Note: "fair" indicates few or no clouds below 12,000 feet with no
significant weather and/or obstructions to visibility.

* = STATION THAT DOES NOT REPORT PRECIPITATION /E.G. RAIN...SNOW...ETC/
    THUNDER OR FOG.

PAZ002>004-007>009-013>016-020>023-029>032-171600-
WESTERN PENNSYLVANIA

CITY           SKY/WX    TMP DP  RH WIND       PRES   REMARKS
ERIE           MOSUNNY   63  47  55 S12       30.05F
MEADVILLE      SUNNY     59  49  69 S6        30.06F
FRANKLIN*      SUNNY     59  46  63 W5        30.08F
NEW CASTLE     FAIR      62  51  67 CALM      30.07F
BEAVER COUNTY  SUNNY     63  48  59 CALM      30.07F
BUTLER*        SUNNY     63  46  55 W6        30.09S
PITTSBURGH INT MOSUNNY   62  48  60 VRB5      30.06F
PITTSBURGH     PTSUNNY   61  50  67 SE5       30.06F
INDIANA*       PTSUNNY   61  48  63 CALM      30.11F
LATROBE        MOSUNNY   63  54  72 CALM      30.08F
WASHINGTON CO* SUNNY     63  54  72 CALM      30.07F
$$

PAZ004>006-010>012-017>019-024>028-033>037-041-042-045-046-049>053-171600-
CENTRAL PENNSYLVANIA

CITY           SKY/WX    TMP DP  RH WIND       PRES   REMARKS
BRADFORD       SUNNY     55  44  66 S7        30.07F
DUBOIS         SUNNY     58  48  69 W7        30.06F
CLEARFIELD     SUNNY     56  48  74 S6        30.08F
JOHNSTOWN      SUNNY     57  48  72 VRB3      30.08F
ALTOONA        MOSUNNY   60  50  69 CALM      30.08F
STATE COLLEGE  MOSUNNY   57  50  77 CALM      30.08F
WILLIAMSPORT   MOSUNNY   55  48  77 CALM      30.08F
SELINSGROVE    SUNNY     63  51  65 CALM      30.08F
FT INDIANTOWN  SUNNY     66  47  49 VRB2      30.07F
CAPITAL CITY   MOSUNNY   66  48  52 CALM      30.07F
HARRISBURG     SUNNY     68  49  50 CALM      30.06F
YORK           SUNNY     66  51  58 CALM      30.07F
$$

PAZ038>040-043-044-047-048-054-055-060>062-067>071-171600-
EASTERN PENNSYLVANIA

CITY           SKY/WX    TMP DP  RH WIND       PRES   REMARKS
SCRANTON       SUNNY     58  48  69 NW5       30.08F
MOUNT POCONO   MOSUNNY   59  41  51 W5        30.08F
ALLENTOWN      SUNNY     65  48  54 NE3       30.07F
QUAKERTOWN*    MOSUNNY   64  46  52 SE5       30.08F
READING        SUNNY     67  52  58 VRB3      30.06F
LANCASTER      SUNNY     65  49  56 E3        30.07F
COATESVILLE    MOSUNNY   64  50  59 N3        30.08F
POTTSTOWN      SUNNY     66  48  52 NE6       30.08F
BLUE BELL      SUNNY     68  46  45 CALM      30.06F
DOYLESTOWN     SUNNY     66  48  52 CALM      30.06F
WILLOW GROVE   NOT AVBL
NORTH PHILA    SUNNY     70  44  39 NE7       30.07F
PHILADELPHIA   MOSUNNY   70  49  47 E6        30.06F
$$



USA.gov is the U.S. government's official web portal to all federal, state and local government web resources and services.